2025-292D

Last updated on Mon Dec 15 2025 00:02:13 GMT+0000 (Coordinated Universal Time)

1 66996U 25292D 25348.53585078 .00000874 00000+0 66608-4 0 9997 2 66996 97.6531 61.0701 0013218 269.9152 90.0560 15.04609236 661
UTC large
Height (km)
Speed (km/s)
/
Latitude / Longitude
Inclination (degrees)
Orbital Period (minutes)
Azimuth
Elevation
Range (km)
Doppler Factor

Next 0 passes for location: London (51.5072 / 0.1276)

Sorry there are no passes over London.